DateTimeUTC,F1_A11,F1_S11,BsB_S11,BsG_S11,BsR_S11,BbsB_S11,BbsG_S11,BbsR_S11,BaB_A11,BaG_A11,BaR_A11,Tu_S11,T_S11,Uu_S11,U_S11,P_S11,T1_A11
2021-02-07T14:00:00Z,00000200,21000000,,,,,,,0000.53,0000.38,0000.06,15.8,23.4,,00.0,0657.2,30.9
2021-02-07T14:01:00Z,00000200,21000000,,,,,,,0000.51,0000.50,0000.63,15.8,23.4,,00.0,0657.2,30.9
2021-02-07T14:02:00Z,00000200,21000000,,,,,,,0000.75,0000.77,0000.27,15.8,23.4,,00.0,0657.2,30.9
2021-02-07T14:03:00Z,00000200,61000000,,,,,,,0006.54,0006.13,0005.12,15.9,23.4,,00.0,0657.2,30.9
2021-02-07T14:04:00Z,00000200,41000000,0001.00,0000.33,0000.54,0000.06,0000.16,0000.32,0004.39,0004.17,0002.95,16.2,23.3,,00.0,0657.9,30.9
2021-02-07T14:05:00Z,00000200,01000000,0000.90,0000.40,0000.18,0000.30,-000.03,0000.03,0001.03,0000.64,0000.50,16.3,23.3,,00.0,0658.0,31.0
2021-02-07T14:06:00Z,00000200,01000000,0000.43,0000.45,0000.23,0000.09,0000.03,0000.22,0000.46,0000.37,0000.58,16.3,23.3,,00.0,0658.0,30.9
2021-02-07T14:07:00Z,00000200,01000000,0000.35,0000.55,0000.49,0000.52,0000.35,0000.21,0000.31,0000.79,0000.57,16.2,23.2,,00.0,0658.1,30.9
2021-02-07T14:08:00Z,00000200,01000000,0000.35,0000.83,0000.44,0000.17,0000.26,0000.32,0000.59,0000.79,0000.51,16.2,23.2,,00.0,0658.0,30.9
2021-02-07T14:09:00Z,00000200,01000000,0000.92,0000.45,0000.36,0000.12,0000.08,0000.31,0000.68,0000.11,0000.25,16.2,23.2,,00.0,0658.1,30.9
2021-02-07T14:10:00Z,00000200,01000000,0000.24,0000.28,0000.40,0000.05,0000.24,0000.26,0000.38,0000.75,0000.21,16.2,23.2,,00.0,0658.1,30.9
2021-02-07T14:11:00Z,00000200,01000000,0000.94,0000.34,0000.25,0000.05,-000.11,0000.23,0000.68,0000.24,0000.33,16.1,23.1,,00.0,0658.1,30.9
2021-02-07T14:12:00Z,00000200,01000000,0001.90,0000.32,0000.30,0000.59,-000.09,0000.09,0000.40,0000.76,0000.54,16.1,23.1,,00.0,0658.1,30.9
2021-02-07T14:13:00Z,00000200,01000000,0000.70,0000.95,0000.16,0000.07,0000.14,-000.20,0000.45,-000.23,0000.23,16.1,23.1,,00.0,0658.1,30.9
2021-02-07T14:14:00Z,00000200,01000000,0000.43,0000.21,0000.25,0000.26,0000.09,-000.20,0000.72,0000.62,0000.55,16.1,23.1,,00.0,0658.1,30.9
2021-02-07T14:15:00Z,00000200,01000000,0000.30,0000.07,0000.32,-000.30,0000.13,0000.15,0000.43,0000.49,0000.27,16.1,23.1,,00.0,0658.0,30.9
2021-02-07T14:16:00Z,00000200,01000000,0001.00,0000.53,0000.19,-000.11,0000.07,-000.09,0000.45,0000.97,0000.56,16.1,23.1,,00.0,0658.0,30.9
2021-02-07T14:17:00Z,00000200,01000000,0000.18,0000.19,0000.55,-000.49,0000.28,0000.12,0000.54,0000.34,0000.32,16.3,23.2,,00.0,0657.9,30.9
2021-02-07T14:18:00Z,00000200,01000000,0000.22,0000.27,0000.41,0000.14,0000.37,-000.01,0000.55,0000.47,0000.21,16.4,23.2,,00.0,0657.9,31.0
2021-02-07T14:19:00Z,00000200,01000000,0001.11,0000.40,0000.16,0000.29,0000.07,0000.06,0000.11,0000.57,0000.63,16.5,23.3,,00.0,0657.9,31.0
2021-02-07T14:20:00Z,00000200,01000000,0000.90,0000.18,0000.31,0000.19,0000.00,0000.23,0000.19,0000.11,-000.05,16.6,23.3,,00.0,0657.9,31.0
2021-02-07T14:21:00Z,00000200,01000000,0000.76,0000.19,0000.07,-000.10,0000.26,0000.15,0000.69,0000.27,0000.41,16.7,23.4,,00.0,0657.9,31.0
2021-02-07T14:22:00Z,00000200,01000000,0001.63,0000.56,0000.27,0000.25,0000.09,0000.38,0000.22,0000.12,-000.02,16.7,23.4,,00.0,0658.0,31.0
2021-02-07T14:23:00Z,00000200,01000000,0001.55,0000.61,0000.62,0000.75,0000.13,0000.39,0002.93,0003.00,0002.43,16.7,23.4,,00.0,0658.0,31.0
2021-02-07T14:24:00Z,00000200,01000000,0006.39,0004.25,0002.90,0001.13,0001.37,0000.92,0057.78,0053.73,0043.67,16.6,23.4,,00.0,0658.1,31.0
2021-02-07T14:25:00Z,00000200,01000000,0004.44,0003.45,0002.10,0001.58,0001.18,0000.73,0050.45,0047.13,0038.45,16.6,23.4,,00.0,0658.1,31.0
2021-02-07T14:26:00Z,00000200,01000000,0004.47,0002.46,0002.04,0001.00,0000.74,0000.55,0036.34,0034.06,0028.32,16.6,23.4,,00.0,0658.1,31.0
2021-02-07T14:27:00Z,00000200,01000000,0001.30,0001.15,0000.73,0000.56,0000.23,0000.22,0009.71,0009.06,0007.17,16.5,23.3,,00.0,0658.1,31.0
2021-02-07T14:28:00Z,00000200,01000000,0001.28,0000.62,0000.40,0000.49,0000.47,0000.22,0001.07,0001.60,0000.90,16.5,23.4,,00.0,0658.1,30.9
2021-02-07T14:29:00Z,00000200,01000000,0001.48,0000.41,0000.16,0000.10,0000.09,0000.05,0000.87,0000.26,0000.58,16.5,23.3,,00.0,0658.1,30.9
2021-02-07T14:30:00Z,00000200,01000000,0001.62,0000.34,0000.12,0000.36,0000.15,-000.04,0000.57,0000.50,0000.65,16.5,23.3,,00.0,0658.1,30.9
2021-02-07T14:31:00Z,00000200,01000000,0001.87,0000.63,0000.63,0000.48,0000.17,0000.11,0000.59,0000.63,0000.44,16.5,23.4,,00.0,0658.0,31.0
2021-02-07T14:32:00Z,00000200,01000000,0001.31,0000.55,0000.48,0000.49,-000.13,0000.29,0000.47,0000.44,0000.44,16.7,23.4,,00.0,0658.0,31.0
2021-02-07T14:33:00Z,00000200,01000000,0001.67,0000.69,0000.60,0000.26,0000.31,0000.06,0000.77,0000.63,0000.46,16.8,23.5,,00.0,0658.0,31.0
2021-02-07T14:34:00Z,00000200,01000000,0000.93,0001.02,0000.55,0000.08,0000.18,0000.26,0000.68,0000.63,0000.60,16.9,23.5,,00.0,0657.9,31.0
2021-02-07T14:35:00Z,00000200,01000000,0002.05,0001.38,0001.07,0001.23,0000.27,0000.52,0007.12,0006.55,0005.31,16.9,23.6,,00.0,0657.9,31.0
2021-02-07T14:36:00Z,00000200,01000000,0005.34,0003.48,0002.37,0001.10,0000.67,0000.85,0040.16,0037.31,0030.34,16.9,23.6,,00.0,0657.9,31.0
2021-02-07T14:37:00Z,00000200,01000000,0007.70,0005.26,0003.73,0001.75,0001.36,0001.08,0071.53,0066.75,0054.32,16.9,23.6,,00.0,0657.9,31.0
2021-02-07T14:38:00Z,00000200,01000000,0007.99,0005.30,0003.15,0001.38,0001.15,0001.15,0065.21,0061.08,0049.84,16.9,23.6,,00.0,0658.0,31.0
2021-02-07T14:39:00Z,00000200,01000000,0007.66,0005.14,0003.23,0001.07,0001.33,0001.11,0069.10,0064.76,0052.86,16.9,23.6,,00.0,0658.0,31.0
2021-02-07T14:40:00Z,00000200,01000000,0007.93,0005.73,0003.51,0001.77,0001.27,0001.06,0073.85,0068.81,0056.35,16.8,23.6,,00.0,0658.0,31.0
2021-02-07T14:41:00Z,00000200,01000000,0007.23,0005.05,0003.48,0001.52,0001.29,0000.98,0067.23,0063.11,0051.71,16.8,23.6,,00.0,0658.0,31.0
2021-02-07T14:42:00Z,00000200,01000000,0007.77,0005.28,0003.36,0001.75,0001.36,0000.99,0070.30,0065.78,0054.02,16.8,23.6,,00.0,0658.0,31.0
2021-02-07T14:43:00Z,00000200,01000000,0005.97,0004.78,0003.16,0001.34,0001.27,0001.08,0062.64,0058.43,0047.35,16.7,23.6,,00.0,0658.0,31.0
2021-02-07T14:44:00Z,00000200,01000000,0003.57,0001.93,0001.50,0000.23,0000.24,0000.29,0022.51,0020.70,0017.69,16.7,23.5,,00.0,0658.0,30.9
2021-02-07T14:45:00Z,00000200,01000000,0001.10,0001.20,0000.80,-000.24,0000.19,0000.48,0004.07,0004.30,0002.88,16.7,23.5,,00.0,0658.0,30.9
2021-02-07T14:46:00Z,00000200,01000000,0001.10,0000.73,0000.61,-000.08,-000.10,0000.22,0001.34,0001.42,0001.12,16.8,23.5,,00.0,0657.9,31.0
2021-02-07T14:47:00Z,00000200,01000000,0001.17,0000.73,0000.42,0000.21,-000.01,0000.08,0001.35,0001.41,0001.25,16.8,23.6,,00.0,0657.9,31.0
2021-02-07T14:48:00Z,00000200,01000000,0001.44,0000.77,0000.51,0000.18,-000.04,0000.07,0001.33,0000.89,0001.10,16.9,23.6,,00.0,0657.9,31.0
2021-02-07T14:49:00Z,00000200,01000000,0001.57,0000.97,0000.64,0000.23,0000.23,0000.47,0001.07,0000.96,0000.64,16.9,23.6,,00.0,0657.9,31.0
2021-02-07T14:50:00Z,00000200,01000000,0001.39,0000.77,0000.85,0000.30,0000.20,0000.51,0000.95,0001.37,0001.08,17.0,23.7,,00.0,0657.9,31.0
2021-02-07T14:51:00Z,00000200,01000000,0001.78,0000.83,0000.43,0000.52,0000.03,0000.30,0001.26,0000.77,0000.60,17.0,23.7,,00.0,0657.9,31.0
2021-02-07T14:52:00Z,00000200,01000000,0001.30,0000.66,0000.56,-000.05,0000.13,0000.42,0000.41,0000.74,0000.87,17.0,23.7,,00.0,0657.9,31.0
2021-02-07T14:53:00Z,00000200,01000000,0001.79,0000.88,0000.58,0000.79,0000.38,0000.32,0001.09,0001.11,0000.53,16.9,23.7,,00.0,0657.9,31.0
2021-02-07T14:54:00Z,00000200,01000000,0001.07,0000.86,0000.67,0000.25,0000.21,0000.43,0001.03,0000.49,0000.84,16.9,23.7,,00.0,0657.9,31.0
2021-02-07T14:55:00Z,00000200,01000000,0001.68,0000.42,0000.43,0000.37,-000.06,0000.35,0000.80,0000.82,0000.23,16.9,23.7,,00.0,0658.0,31.0
2021-02-07T14:56:00Z,00000200,01000000,0001.38,0001.17,0000.63,0000.39,0000.23,0000.31,0000.83,0000.71,0000.70,16.8,23.6,,00.0,0658.0,31.0
2021-02-07T14:57:00Z,00000200,41000000,,,,,,,0001.15,0001.23,0000.89,16.9,23.7,,00.0,0658.0,31.0
2021-02-07T14:58:00Z,00000200,61000000,,,,,,,-000.19,-000.25,-000.18,16.4,23.8,,00.0,0657.1,31.0
2021-02-07T14:59:00Z,00000200,21000000,,,,,,,0000.07,-000.13,0000.17,16.4,23.9,,00.0,0657.1,31.0
